CZ-6A R/B, 61570

Orbit data source: Space-Track

CZ-6A R/B, 61570 is space debris in LEO originally from a launch on Tue, 15 Oct 2024 UTC launched from the Taiyaun Space Center, China (TSC). Debris objects in space refer to the collection of defunct objects orbiting the Earth. Examples of debris include non-operational satellites, rocket bodies, and fragments generated from explosions, collisions, or faulty payload assembly.

Loading next visibility...
Identifier
61570, 2024-185U
Orbit
LEO
Country
Flag of CNCN / PRC
Related business
Manufacturer
SAST
Mission
Spacecraft
Bus & Motor
CZ-6A STAGE 2, YF-115
Mass
~6,000 kg wet, ~6,000 kg dry
Launch date (UTC)
2024-10-15 (1 year ago)
Launch vehicle
Unknown
Launch site
Taiyaun Space Center, China (TSC)
Object type
Payload
Rocket body
Debris
Shape & HBR
Unknown shape, 5.5 m
Radar Cross Section
Large (>1 m²)

Expand to show TLE details & history
Last TLE update: 7 hours ago

TLE from 7 hours ago
0 CZ-6A R/B
1 61570U 24185U   26071.98418984  .00000391  00000-0  86996-4 0  9991
2 61570  89.0156  66.3400 0099057 163.3213 197.1294 14.51723595 73700
Epoch: 2026-03-12T23:37Z
TLE epoch observation values (Epoch: 2026-03-12T23:37:14.002Z)
Latitude
0.00006°
Longitude
-98.59458°
Altitude
790.391 km
Speed
7.423 km/s
True Right ascension
04h 25m 21s
True Declination
0° 00' 00"
Sunlit
Object was in daylight at epoch
Visualization orbit readout
Latitude
Unknown
Longitude
Unknown
Altitude
Unknown
Speed
Unknown
Apparent Right ascension
Unknown
Apparent Declination
Unknown
Sunlit
N/A
Visualization observer readout
Local Sidereal Time
10:51:21
Azimuth
Unknown
Elevation
Unknown
Doppler factor
Unknown
Orbital elements
Apogee altitude
787.212 km
Perigee altitude
646.648 km
Semi-major axis
7,095.067 km
Eccentricity
0.00991
Inclination
89.0156°
RAAN
66.34°
Arg. of periapsis
163.3213°
True anomaly
196.79899°
Mean anomaly
197.1294°
Eccentric anomaly
196.96381°
Mean motion
3.63169 °/min
Orbital period
99.13 mins
BSTAR
0.000086996
Loading maneuver chart data...
Computing Atmospheric mass density...
Loading historical data...
Loading historical data...
Loading historical data...
Loading historical data...
Loading historical data...
Loading historical data...
Loading historical data...

Documentation

Showing up to 5 results
|